This demonstration page uses our WeatherBlox Daily Observations layout. Learn more.

Left ArrowRight Arrow

39.08367, -84.50855

Hourly Observations for September 16, 2017

Temp ( °F °C ) Dew Point ( °F °C ) Humidity (%) Winds ( mph kmh ) Pressure ( in mb ) Visibility ( mi km ) Precip ( " mm )
12:23 am 00:23 Clear with Mist and Fog 61 16.1 61 16.1 100 100 N N/A 30.12 1020 2 3 N/A
12:51 am 00:51 Clear with Fog 63 17 63 17 100 100 N N/A 30.12 1020 1 1 N/A
12:53 am 00:53 Clear with Fog 61 16.1 61 16.1 100 100 N N/A 30.13 1020 1 1 N/A
1:03 am 01:03 Mostly Cloudy with Fog 60 15.6 60 15.6 100 100 N N/A 30.09 1019 0 0 N/A
1:11 am 01:11 Clear with Fog 61 16.1 61 16.1 100 100 N N/A 30.12 1020 1 1 N/A
1:18 am 01:18 Clear with Mist and Fog 61 16.1 61 16.1 100 100 N N/A 30.09 1019 2 3 N/A
1:32 am 01:32 Clear with Mist and Fog 60 15.6 60 15.6 100 100 N N/A 30.09 1019 1 2 N/A
1:51 am 01:51 Clear with Mist and Fog 61 16 61 16 100 100 N N/A 30.09 1019 3 4 N/A
1:53 am 01:53 Clear with Mist and Fog 59 15 59 15 100 100 N N/A 30.12 1020 3 5 N/A
2:01 am 02:01 Mostly Clear with Mist and Fog 60 15.6 60 15.6 100 100 N N/A 30.09 1019 2 3 N/A
2:14 am 02:14 Mostly Cloudy with Fog 60 15.6 60 15.6 100 100 N N/A 30.09 1019 1 1 N/A
2:21 am 02:21 Mostly Clear with Mist and Fog 59 15 59 15 100 100 N N/A 30.15 1021 1 2 N/A
2:31 am 02:31 Mostly Cloudy with Mist and Fog 60 15.6 60 15.6 100 100 N N/A 30.15 1021 1 1 N/A
2:53 am 02:53 Mostly Cloudy with Fog 60 15.6 60 15.6 100 100 N N/A 30.12 1020 1 1 N/A
3:06 am 03:06 Mostly Cloudy with Fog 60 15.6 60 15.6 100 100 N N/A 30.09 1019 0 0 N/A
3:16 am 03:16 Mostly Cloudy with Fog 59 15 59 15 100 100 N N/A 30.12 1020 0 0 N/A
3:53 am 03:53 Mostly Cloudy with Fog 59 15 59 15 100 100 N N/A 30.12 1020 0 0 N/A
4:38 am 04:38 Mostly Cloudy with Fog 59 15 59 15 100 100 N N/A 30.15 1021 1 1 N/A
4:53 am 04:53 Mostly Cloudy with Mist and Fog 58 14.4 58 14.4 100 100 N N/A 30.13 1020 1 1 N/A
4:58 am 04:58 Mostly Cloudy with Mist and Fog 58 14.4 58 14.4 100 100 N N/A 30.15 1021 2 3 N/A
5:04 am 05:04 Mostly Cloudy with Mist and Fog 58 14.4 58 14.4 100 100 N N/A 30.15 1021 1 1 N/A
5:20 am 05:20 Mostly Cloudy with Mist and Fog 58 14.4 58 14.4 100 100 N N/A 30.15 1021 2 3 N/A
5:27 am 05:27 Mostly Cloudy with Mist and Fog 58 14.4 58 14.4 100 100 N N/A 30.15 1021 2 2 N/A
5:32 am 05:32 Mostly Cloudy with Mist and Fog 58 14.4 58 14.4 100 100 N N/A 30.15 1021 3 5 N/A
5:40 am 05:40 Mostly Cloudy with Mist and Fog 58 14.4 58 14.4 100 100 NE 3 6 30.15 1021 2 2 N/A
5:42 am 05:42 Mostly Cloudy with Mist and Fog 58 14.4 58 14.4 100 100 NE 3 6 30.15 1021 1 1 N/A
5:53 am 05:53 Mostly Cloudy with Fog 57 13.9 57 13.9 100 100 NE 3 6 30.14 1021 1 1 N/A
6:10 am 06:10 Mostly Cloudy with Fog 58 14.4 58 14.4 100 100 N N/A 30.15 1021 1 1 N/A
6:20 am 06:20 Mostly Cloudy with Mist and Fog 59 15 59 15 100 100 NE 3 6 30.15 1021 2 3 N/A
6:28 am 06:28 Mostly Cloudy with Mist and Fog 58 14.4 58 14.4 100 100 N N/A 30.15 1021 4 6 N/A
6:53 am 06:53 Partly Cloudy with Mist and Fog 58 14.4 58 14.4 100 100 N N/A 30.15 1021 4 6 N/A
7:53 am 07:53 Sunny with Patchy Fog 58 14.4 58 14.4 100 100 N N/A 30.16 1022 5 8 N/A
8:53 am 08:53 Mostly Sunny 62 16.7 62 16.7 100 100 N N/A 30.17 1022 7 11 N/A
9:53 am 09:53 Sunny 67 19.4 65 18.3 93 93 N N/A 30.17 1022 10 16 N/A
10:53 am 10:53 Sunny 73 22.8 67 19.4 81 81 N N/A 30.18 1022 10 16 N/A
11:53 am 11:53 Partly Cloudy 78 25.6 67 19.4 69 69 N N/A 30.17 1022 10 16 N/A
12:53 pm 12:53 Mostly Cloudy 79 26.1 68 20 69 69 SSW 5 7 30.16 1022 10 16 N/A
1:53 pm 13:53 Mostly Cloudy 80 26.7 64 17.8 58 58 N N/A 30.15 1021 10 16 N/A
2:53 pm 14:53 Mostly Cloudy 81 27.2 63 17.2 54 54 N N/A 30.14 1021 10 16 N/A
3:53 pm 15:53 Mostly Cloudy 82 27.8 65 18.3 56 56 ESE 3 6 30.11 1020 10 16 N/A
4:53 pm 16:53 Partly Cloudy 83 28.3 64 17.8 53 53 VRB 3 6 30.10 1019 10 16 N/A
5:53 pm 17:53 Mostly Sunny 80 26.7 64 17.8 58 58 ENE 5 7 30.10 1019 10 16 N/A
6:53 pm 18:53 Mostly Sunny 75 23.9 68 20 79 79 N N/A 30.09 1019 10 16 N/A
7:53 pm 19:53 Clear 69 20.6 67 19.4 93 93 N N/A 30.10 1019 10 16 N/A
8:53 pm 20:53 Clear 67 19.4 66 18.9 97 97 N N/A 30.10 1019 9 14 N/A
9:53 pm 21:53 Clear 65 18.3 64 17.8 97 97 N N/A 30.11 1020 9 14 N/A
10:53 pm 22:53 Clear with Mist and Fog 63 17.2 63 17.2 100 100 N N/A 30.12 1020 6 10 N/A
11:53 pm 23:53 Clear with Mist and Fog 62 16.7 62 16.7 100 100 N N/A 30.13 1020 4 6 N/A

Powered by AerisWeather